FW1708 Weather Reports


time (UTC)temp
C
wind
direction
speed
KPH
gust
KPH
rain 1hr
cm
rain 24hr
cm
rain mn
cm
humidity
%
barometer
mb
20260504174516 20 235 3.2 17.7 0.00 0.00 0.00 42 1012.5
20260504173025 20 254 4.8 17.7 0.00 0.00 0.00 41 1012.7
20260504171518 20 251 4.8 16.1 0.00 0.00 0.00 44 1012.9
20260504110107 7 258 1.6 6.4 0.00 0.00 0.00 83 1015.5
20260504081537 4 258 0.0 0.0 0.00 0.00 0.00 81 1015.4
20260504050016 8 259 0.0 3.2 0.00 0.00 0.00 62 1015.2
20260504044531 7 259 0.0 4.8 0.00 0.00 0.00 65 1015.3
20260504043009 6 259 0.0 3.2 0.00 0.00 0.00 70 1015.2
20260504041506 6 259 0.0 0.0 0.00 0.00 0.00 69 1015.2
20260504040003 6 259 0.0 0.0 0.00 0.00 0.00 67 1015.0
20260504034502 7 258 0.0 0.0 0.00 0.00 0.00 66 1014.9
20260504033002 7 257 0.0 0.0 0.00 0.00 0.00 65 1014.8
20260504031502 8 258 0.0 0.0 0.00 0.00 0.00 63 1014.8
20260504030001 8 360 0.0 3.2 0.00 0.00 0.00 63 1014.7
20260504024501 7 259 0.0 1.6 0.00 0.00 0.00 64 1014.8
20260504023100 7 360 0.0 0.0 0.00 0.00 0.00 65 1014.8
20260504021602 8 360 0.0 0.0 0.00 0.00 0.00 61 1014.8
20260504014603 9 258 0.0 0.0 0.00 0.00 0.00 58 1014.6
20260504013059 10 360 0.0 0.0 0.00 0.00 0.00 57 1014.4
20260504011559 10 360 0.0 0.0 0.00 0.00 0.00 55 1014.3
20260504004557 12 360 0.0 0.0 0.00 0.00 0.00 49 1014.0
20260504003056 13 259 0.0 1.6 0.00 0.00 0.00 45 1013.7
20260504001612 13 260 3.2 6.4 0.00 0.00 0.00 42 1013.6
20260504000056 13 274 3.2 9.7 0.00 0.00 0.00 40 1013.4
20260503234554 14 296 6.4 12.9 0.00 0.00 0.00 39 1013.3
20260503233054 15 264 3.2 11.3 0.00 0.00 0.00 39 1013.2
20260503231554 15 261 3.2 6.4 0.00 0.00 0.00 37 1013.2
20260503230053 15 274 6.4 11.3 0.00 0.00 0.00 36 1013.1
20260503224553 15 252 6.4 17.7 0.00 0.00 0.00 36 1013.0
20260503223052 15 292 4.8 14.5 0.00 0.00 0.00 36 1013.0
20260503221552 15 289 9.7 20.9 0.00 0.00 0.00 34 1013.1
20260503220106 15 257 6.4 14.5 0.00 0.00 0.00 35 1013.0
20260503214551 15 317 4.8 16.1 0.00 0.00 0.00 35 1013.0
20260503213050 15 247 6.4 17.7 0.00 0.00 0.00 35 1012.9
20260503211602 15 251 4.8 12.9 0.00 0.00 0.00 36 1012.8
20260503210054 15 263 8.0 19.3 0.00 0.00 0.00 35 1012.9
20260503204552 15 247 3.2 16.1 0.00 0.00 0.00 38 1013.0
20260503203044 15 255 9.7 17.7 0.00 0.00 0.00 36 1013.2
20260503201543 14 270 8.0 20.9 0.00 0.00 0.00 39 1013.2
20260503200042 13 323 4.8 20.9 0.00 0.00 0.00 42 1013.3
20260503194545 13 245 4.8 16.1 0.00 0.00 0.00 38 1013.3
20260503193048 13 251 9.7 19.3 0.00 0.00 0.00 39 1013.4
20260503191538 13 238 4.8 12.9 0.00 0.00 0.00 39 1013.7
20260503190037 13 232 8.0 19.3 0.00 0.00 0.00 39 1013.8
20260503184535 13 277 6.4 27.4 0.00 0.00 0.00 39 1014.0
20260503183039 13 263 6.4 22.5 0.00 0.00 0.00 42 1014.1
20260503181604 12 237 12.9 25.7 0.00 0.00 0.00 38 1014.1
20260503180031 12 272 6.4 20.9 0.00 0.00 0.00 39 1014.1